TimeEDT,TemperatureF,Dew PointF,Humidity,Sea Level PressureIn,VisibilityMPH,Wind Direction,Wind SpeedMPH,Gust SpeedMPH,PrecipitationIn,Events,Conditions,WindDirDegrees,DateUTC
12:15 AM,68.7,67.5,96,29.97,10.0,Calm,Calm,-,N/A,,Scattered Clouds,0,2013-08-02 04:15:00
12:35 AM,69.4,67.5,93,29.98,10.0,Calm,Calm,-,N/A,,Scattered Clouds,0,2013-08-02 04:35:00
12:55 AM,68.5,67.6,97,29.98,10.0,Calm,Calm,-,N/A,,Clear,0,2013-08-02 04:55:00
1:15 AM,68.0,67.1,97,29.98,10.0,Calm,Calm,-,N/A,,Clear,0,2013-08-02 05:15:00
1:35 AM,67.5,66.7,98,29.97,10.0,Calm,Calm,-,N/A,,Clear,0,2013-08-02 05:35:00
1:55 AM,67.1,66.4,98,29.97,10.0,Calm,Calm,-,N/A,,Scattered Clouds,0,2013-08-02 05:55:00
2:15 AM,67.5,66.6,97,29.97,10.0,Calm,Calm,-,N/A,,Scattered Clouds,0,2013-08-02 06:15:00
2:35 AM,67.1,66.2,97,29.95,10.0,NW,3.5,-,N/A,,Scattered Clouds,310,2013-08-02 06:35:00
2:55 AM,68.0,67.1,97,29.95,10.0,NW,3.5,-,N/A,,Clear,320,2013-08-02 06:55:00
3:15 AM,67.8,66.6,96,29.95,10.0,Calm,Calm,-,N/A,,Clear,0,2013-08-02 07:15:00
3:35 AM,67.3,66.6,98,29.95,10.0,Calm,Calm,-,N/A,,Clear,0,2013-08-02 07:35:00
3:55 AM,66.0,65.3,98,29.95,7.0,Calm,Calm,-,N/A,,Clear,0,2013-08-02 07:55:00
4:15 AM,66.4,66.0,99,29.95,2.5,Calm,Calm,-,N/A,,Clear,0,2013-08-02 08:15:00
4:35 AM,65.8,65.5,99,29.95,7.0,Calm,Calm,-,N/A,,Clear,0,2013-08-02 08:35:00
4:55 AM,65.3,64.9,99,29.96,7.0,Calm,Calm,-,N/A,,Clear,0,2013-08-02 08:55:00
5:15 AM,66.0,65.3,98,29.98,10.0,Calm,Calm,-,N/A,,Mostly Cloudy,0,2013-08-02 09:15:00
5:35 AM,65.5,64.9,98,29.98,7.0,Calm,Calm,-,N/A,,Mostly Cloudy,0,2013-08-02 09:35:00
5:55 AM,65.1,64.6,98,29.99,10.0,Calm,Calm,-,N/A,,Clear,0,2013-08-02 09:55:00
6:15 AM,64.2,63.7,98,29.98,5.0,Calm,Calm,-,N/A,,Clear,0,2013-08-02 10:15:00
6:35 AM,63.9,63.5,99,30.00,7.0,Calm,Calm,-,N/A,,Clear,0,2013-08-02 10:35:00
6:55 AM,64.6,63.9,98,30.00,10.0,Calm,Calm,-,N/A,,Scattered Clouds,0,2013-08-02 10:55:00
8:35 AM,71.2,65.8,83,30.02,10.0,Calm,Calm,-,N/A,,Clear,0,2013-08-02 12:35:00
8:55 AM,72.5,65.8,80,30.03,10.0,NNE,4.6,-,N/A,,Clear,30,2013-08-02 12:55:00
9:15 AM,73.4,65.8,77,30.03,10.0,NE,4.6,-,N/A,,Clear,40,2013-08-02 13:15:00
9:35 AM,74.5,64.9,72,30.04,10.0,NNE,6.9,-,N/A,,Clear,20,2013-08-02 13:35:00
9:55 AM,75.2,65.1,71,30.05,10.0,North,5.8,-,N/A,,Clear,360,2013-08-02 13:55:00
10:15 AM,76.3,65.7,70,30.04,10.0,ENE,6.9,-,N/A,,Clear,70,2013-08-02 14:15:00
10:35 AM,76.5,64.6,67,30.05,10.0,ENE,3.5,-,N/A,,Clear,70,2013-08-02 14:35:00
10:55 AM,77.4,64.8,65,30.06,10.0,North,4.6,-,N/A,,Clear,10,2013-08-02 14:55:00
11:15 AM,77.4,64.6,65,30.06,10.0,Calm,Calm,-,N/A,,Clear,0,2013-08-02 15:15:00
11:35 AM,78.6,66.2,66,30.06,10.0,Calm,Calm,-,N/A,,Clear,0,2013-08-02 15:35:00
11:55 AM,79.2,64.9,62,30.06,10.0,ENE,3.5,-,N/A,,Scattered Clouds,70,2013-08-02 15:55:00
12:15 PM,79.9,65.1,61,30.06,10.0,ENE,3.5,-,N/A,,Scattered Clouds,70,2013-08-02 16:15:00
12:35 PM,80.2,65.3,60,30.06,10.0,Calm,Calm,-,N/A,,Clear,0,2013-08-02 16:35:00
12:55 PM,79.9,65.8,62,30.06,10.0,Calm,Calm,-,N/A,,Clear,0,2013-08-02 16:55:00
1:15 PM,81.0,66.4,61,30.05,10.0,ENE,4.6,-,N/A,,Scattered Clouds,70,2013-08-02 17:15:00
1:35 PM,80.8,64.0,57,30.06,10.0,Calm,Calm,-,N/A,,Scattered Clouds,0,2013-08-02 17:35:00
1:55 PM,81.5,65.7,58,30.05,10.0,Calm,Calm,-,N/A,,Clear,0,2013-08-02 17:55:00
2:15 PM,81.7,64.9,57,30.05,10.0,Calm,Calm,-,N/A,,Clear,0,2013-08-02 18:15:00
2:35 PM,82.4,64.2,54,30.04,10.0,Calm,Calm,-,N/A,,Clear,0,2013-08-02 18:35:00
2:55 PM,81.9,63.7,54,30.04,10.0,Calm,Calm,-,N/A,,Clear,0,2013-08-02 18:55:00
3:15 PM,83.3,64.9,54,30.03,10.0,ESE,4.6,-,N/A,,Scattered Clouds,110,2013-08-02 19:15:00
3:35 PM,83.5,65.7,55,30.03,10.0,Calm,Calm,-,N/A,,Scattered Clouds,0,2013-08-02 19:35:00
3:55 PM,82.9,67.1,59,30.03,10.0,SW,4.6,-,N/A,,Clear,220,2013-08-02 19:55:00
4:15 PM,82.8,66.9,59,30.02,10.0,South,4.6,-,N/A,,Clear,190,2013-08-02 20:15:00
4:35 PM,83.3,66.0,56,30.02,10.0,SSE,3.5,-,N/A,,Clear,150,2013-08-02 20:35:00
4:55 PM,82.4,65.3,56,30.02,10.0,South,3.5,-,N/A,,Clear,190,2013-08-02 20:55:00
5:15 PM,82.4,66.6,59,30.02,10.0,Calm,Calm,-,N/A,,Clear,0,2013-08-02 21:15:00
5:35 PM,82.9,65.7,56,30.02,10.0,Calm,Calm,-,N/A,,Clear,0,2013-08-02 21:35:00
5:55 PM,82.6,65.8,57,30.02,10.0,Calm,Calm,-,N/A,,Clear,0,2013-08-02 21:55:00
6:15 PM,82.6,66.0,57,30.02,10.0,Calm,Calm,-,N/A,,Clear,0,2013-08-02 22:15:00
6:35 PM,81.5,66.4,60,30.01,10.0,Calm,Calm,-,N/A,,Clear,0,2013-08-02 22:35:00
6:55 PM,80.6,67.1,63,30.01,10.0,Calm,Calm,-,N/A,,Clear,0,2013-08-02 22:55:00
7:15 PM,79.9,68.0,67,30.01,10.0,Calm,Calm,-,N/A,,Clear,0,2013-08-02 23:15:00
7:35 PM,78.3,68.5,72,30.01,10.0,Calm,Calm,-,N/A,,Clear,0,2013-08-02 23:35:00
7:55 PM,77.9,68.5,73,30.01,10.0,Calm,Calm,-,N/A,,Clear,0,2013-08-02 23:55:00
8:15 PM,75.2,69.4,82,30.01,10.0,Calm,Calm,-,N/A,,Clear,0,2013-08-03 00:15:00
8:35 PM,73.4,69.1,86,30.02,10.0,Calm,Calm,-,N/A,,Clear,0,2013-08-03 00:35:00
8:55 PM,73.8,69.3,86,30.02,10.0,Calm,Calm,-,N/A,,Clear,0,2013-08-03 00:55:00
9:15 PM,72.7,69.1,88,30.03,10.0,Calm,Calm,-,N/A,,Clear,0,2013-08-03 01:15:00
9:35 PM,72.5,69.1,89,30.04,10.0,Calm,Calm,-,N/A,,Clear,0,2013-08-03 01:35:00
9:55 PM,73.4,69.6,88,30.05,10.0,Calm,Calm,-,N/A,,Clear,0,2013-08-03 01:55:00
10:15 PM,72.7,69.6,90,30.05,10.0,Calm,Calm,-,N/A,,Clear,0,2013-08-03 02:15:00
10:35 PM,71.6,70.2,95,30.05,7.0,Calm,Calm,-,N/A,,Clear,0,2013-08-03 02:35:00
10:55 PM,70.7,69.4,96,30.06,7.0,Calm,Calm,-,N/A,,Scattered Clouds,0,2013-08-03 02:55:00
11:15 PM,71.6,70.0,95,30.05,7.0,Calm,Calm,-,N/A,,Scattered Clouds,0,2013-08-03 03:15:00
11:35 PM,71.6,69.8,94,30.05,7.0,Calm,Calm,-,N/A,,Scattered Clouds,0,2013-08-03 03:35:00
11:55 PM,71.2,69.3,93,30.05,10.0,Calm,Calm,-,N/A,,Clear,0,2013-08-03 03:55:00